EW0237 Weather Reports


time (UTC)temp
F
wind
direction
speed
knots
gust
knots
rain 1hr
in
rain 24hr
in
rain mn
in
humidity
%
barometer
mb
20260504231133 74 135 1.7 4.3 0.00 0.00 0.00 38 1008.5
20260504230100 75 180 3.5 3.5 0.00 0.00 0.00 37 1008.1
20260504225058 75 180 0.0 1.7 0.00 0.00 0.00 37 1008.5
20260504224026 75 180 1.7 4.3 0.00 0.00 0.00 37 1008.1
20260504223025 75 157 0.0 3.5 0.00 0.00 0.00 36 1008.5
20260504222024 75 225 2.6 4.3 0.00 0.00 0.00 36 1008.5
20260504221023 75 202 2.6 3.5 0.00 0.00 0.00 35 1008.1
20260504215951 76 270 0.9 5.2 0.00 0.00 0.00 36 1008.1
20260504214949 76 157 2.6 2.6 0.00 0.00 0.00 35 1008.5
20260504213948 76 202 1.7 7.0 0.00 0.00 0.00 34 1008.1
20260504212948 76 270 1.7 3.5 0.00 0.00 0.00 34 1008.5
20260504211947 76 180 0.9 3.5 0.00 0.00 0.00 34 1008.1
20260504210946 78 180 2.6 4.3 0.00 0.00 0.00 33 1008.1
20260504205944 77 135 4.3 6.1 0.00 0.00 0.00 33 1008.1
20260504204944 76 180 1.7 2.6 0.00 0.00 0.00 34 1008.5
20260504203942 76 157 1.7 2.6 0.00 0.00 0.00 33 1008.5
20260504202941 78 180 1.7 3.5 0.00 0.00 0.00 32 1008.5
20260504201940 78 90 6.1 6.1 0.00 0.00 0.00 32 1008.5
20260504200940 78 247 0.0 2.6 0.00 0.00 0.00 32 1008.8
20260504195939 78 112 2.6 2.6 0.00 0.00 0.00 32 1008.8
20260504194938 78 270 2.6 2.6 0.00 0.00 0.00 33 1009.1
20260504193937 77 180 0.0 3.5 0.00 0.00 0.00 33 1008.8
20260504192905 78 157 0.0 2.6 0.00 0.00 0.00 33 1009.1
20260504191904 77 112 1.7 2.6 0.00 0.00 0.00 33 1009.5
20260504190903 77 135 1.7 4.3 0.00 0.00 0.00 34 1009.5
20260504185902 77 67 3.5 7.8 0.00 0.00 0.00 34 1009.8
20260504184901 76 225 4.3 4.3 0.00 0.00 0.00 34 1009.8
20260504183900 75 337 0.0 3.5 0.00 0.00 0.00 36 1010.2
20260504182858 76 67 4.3 4.3 0.00 0.00 0.00 35 1010.2
20260504181857 76 180 1.7 2.6 0.00 0.00 0.00 36 1010.5
20260504180856 75 157 2.6 3.5 0.00 0.00 0.00 35 1010.5
20260504175855 75 315 4.3 4.3 0.00 0.00 0.00 35 1010.8
20260504174854 74 135 5.2 5.2 0.00 0.00 0.00 38 1010.8
20260504173854 74 135 3.5 4.3 0.00 0.00 0.00 37 1010.8
20260504172853 74 225 2.6 4.3 0.00 0.00 0.00 37 1011.2
20260504171852 73 180 5.2 5.2 0.00 0.00 0.00 37 1011.2
20260504170851 73 90 3.5 3.5 0.00 0.00 0.00 38 1011.5
20260504150737 66 225 1.7 2.6 0.00 0.00 0.00 45 1012.5
20260504140629 61 157 1.7 1.7 0.00 0.00 0.00 51 1012.9
20260504130625 55 135 2.6 2.6 0.00 0.00 0.00 60 1013.5
20260504110443 47 112 0.0 0.0 0.00 0.00 0.00 76 1013.9
20260504100407 49 112 0.0 0.0 0.00 0.00 0.00 72 1013.9
20260504081326 48 135 0.0 0.0 0.00 0.00 0.00 76 1014.2
20260504080325 48 292 0.0 0.0 0.00 0.00 0.00 76 1013.9
20260504070219 47 315 0.0 0.0 0.00 0.00 0.00 75 1014.2
20260504060213 46 315 0.0 0.0 0.00 0.00 0.00 75 1014.6
20260504050208 46 315 0.0 0.0 0.00 0.00 0.00 73 1014.2
20260504045136 45 315 0.0 0.0 0.00 0.00 0.00 73 1014.2
20260504044134 45 315 0.0 0.0 0.00 0.00 0.00 73 1014.6
20260504043134 45 315 0.0 0.0 0.00 0.00 0.00 73 1014.2
20260504042133 45 315 0.0 0.0 0.00 0.00 0.00 73 1014.2
20260504041132 45 315 0.0 0.0 0.00 0.00 0.00 72 1014.2
20260504040131 45 315 0.0 0.0 0.00 0.00 0.00 71 1014.2
20260504035130 45 315 0.0 0.0 0.00 0.00 0.00 70 1014.2
20260504034129 45 315 0.0 0.0 0.00 0.00 0.00 70 1014.2
20260504033129 46 315 0.0 0.0 0.00 0.00 0.00 69 1014.2
20260504032128 46 315 0.0 0.0 0.00 0.00 0.00 68 1014.2
20260504031127 46 315 0.0 0.0 0.00 0.00 0.00 67 1014.2
20260504030126 46 315 0.0 0.0 0.00 0.00 0.00 66 1014.2
20260504025055 47 315 0.0 0.0 0.00 0.00 0.00 65 1013.9
20260504024054 47 315 0.0 0.0 0.00 0.00 0.00 64 1014.2
20260504023054 48 315 0.0 0.0 0.00 0.00 0.00 62 1013.9
20260504022053 48 315 0.0 0.0 0.00 0.00 0.00 61 1013.9
20260504021020 48 315 0.0 0.0 0.00 0.00 0.00 59 1013.9
20260504020020 49 315 0.0 0.0 0.00 0.00 0.00 58 1013.5
20260504015018 50 315 0.0 0.0 0.00 0.00 0.00 57 1013.5
20260504014017 50 315 0.0 0.0 0.00 0.00 0.00 55 1013.5
20260504013017 50 315 0.0 0.0 0.00 0.00 0.00 55 1013.5
20260504012016 51 315 0.0 0.0 0.00 0.00 0.00 54 1013.2
20260504011014 52 315 0.0 0.0 0.00 0.00 0.00 54 1013.5
20260504005943 52 315 0.0 0.0 0.00 0.00 0.00 51 1013.5
20260504004941 53 315 0.0 0.0 0.00 0.00 0.00 50 1013.2
20260504003940 54 315 0.0 0.0 0.00 0.00 0.00 51 1013.2
20260504002938 55 315 0.0 0.0 0.00 0.00 0.00 50 1013.2
20260504001938 56 315 0.0 0.0 0.00 0.00 0.00 46 1013.2
20260504000937 57 315 0.0 0.0 0.00 0.00 0.00 44 1013.2
20260503235936 58 315 0.0 0.0 0.00 0.00 0.00 40 1012.9
20260503234935 60 315 0.0 0.0 0.00 0.00 0.00 38 1012.9
20260503233935 60 315 0.0 0.0 0.00 0.00 0.00 35 1012.9
20260503232934 61 315 0.0 4.3 0.00 0.00 0.00 33 1012.5